Regional Weather Roundup
Issued by NWS Goodland, KS

Home | Current Version | Previous Version | Text Only | Print | Product List | Glossary On
Versions: 1 2 3 4 5 6 7 8 9 10 11 12 13 14 15 16 17 18 19 20 21 22 23 24 25 26 27 28 29 30 31 32 33 34 35 36 37 38 39 40 41 42 43 44 45 46 47 48 49 50
000
ASUS43 KGLD 251059
RWRGLD

GOODLAND FORECAST AREA HOURLY WEATHER ROUNDUP
NATIONAL WEATHER SERVICE GOODLAND KS
400 AM MST THU DEC 25 2014

...OFFICIAL OBSERVATIONS...

CITY           SKY/WX    TMP DP  RH WIND       PRES   REMARKS
GOODLAND KS    PTCLDY    26  20  77 SW5       29.40F
HILL CITY KS   CLOUDY    33  18  53 S10       29.48F
IMPERIAL NEB   PTCLDY    25  19  78 N9        29.40F
MCCOOK NEB     CLOUDY    28  22  78 NE8       29.44F
AKRON CO       CLOUDY    37  22  54 N6        29.38F
BURLINGTON CO  MOCLDY    33  21  61 W12       29.39F
LIMON CO       CLOUDY    24  22  91 N7        29.42F
$$

...UNOFFICIAL OBSERVATIONS...

CITY           SKY/WX    TMP DP  RH WIND       PRES   REMARKS
COLBY KS       CLEAR     30  23  74 S8        29.42F
GOVE KS          N/A     30  32 100 MISG        N/A
NORTON KS      CLEAR     30  18  59 SE8       29.45F
SHARON SPRINGS   N/A     29  22  75 S6          N/A
KIT CARSON CO    N/A     26  22  84 MISG        N/A
YUMA CO          N/A     26  21  80 CALM        N/A
$$



USA.gov is the U.S. government's official web portal to all federal, state and local government web resources and services.